Погода в Таразе

Поиск расширенной информации на нашем сайте:

Полезная информация:

Новости сайта



02.01.2020
Опубликован Долгосрочный прогноз погоды по городам России и ближнего зарубежья на январь 2020 года.
Карты: Прогноз на январь и февраль 2020 года, Сравнение прогнозируемой аномалии приземной температуры воздуха на январь 2020 года по разным моделям.




Погода в Таразе - сегодня

Время (UTC), дата Ветер
(°,м/с) 
Видим.   Явления Облачность Т
(°С)
Тd
(°С)
f(%) Тe
(°С)
Pmin
(гПа)
dP
(гПа)
Po
(мм)
O2
(г/м3)
Тmin Tmax R s Состояние
почвы
21 22.09.20 220 (ЮЗ) 10 км    ясно 
+7.6 -3.3 46 +9  1021.9  -0.4  709  278           
00 23.09.20 180 (Ю) 10 км    ясно 
+7 -2.5 51 +7  1022.3  0.2  709  279           
03 23.09.20 180 (Ю) 20000 м    8/4 1000 м верхняя 
[Sc diur, vesp|Ci sp]
+11.9 -2.2 37 +13  1020.9  709  274           
06 23.09.20 350 (С) 20000 м    3/0 верхняя 
[Ci fib]
+16.6 -2.5 27 +18  1019.3  -0.3  708  269  +3.6         
09 23.09.20 040 (СВ) 20000 м    3/0 верхняя 
[Ci fib]
+20.1 -2.5 22 +20  1016.4  -1.8  707  266           
12 23.09.20 280 (З) 20000 м    3/0 верхняя 
[Ci fib]
+20.6 -2.2 21 +21  1015.2  -1  706  265           
15 23.09.20 210 (ЮЗ) 10 км    ясно 
+14.3 -3.3 29 +16  1017.8  0.9  707  271    +21.6       
18 23.09.20 210 (ЮЗ) 10 км    ясно 
+10.4 -4.7 34 +12  1019.2  0.3  707  275    +21.6       
21 23.09.20 200 (Ю) 10 км    ясно 
+8.9 -4.1 40 +10  1019.1  -0.5  707  276           
00 24.09.20 180 (Ю) 10 км    ясно 
+7.6 -3.8 44 +9  1019.7  0.2  707  277           
03 24.09.20 180 (Ю) 20000 м    ясно 
+15.2 -7.1 21 +16  1018.2  -10  707  271           
06 24.09.20 230 (ЮЗ) 20000 м    ясно 
+21.2 -2.5 20 +21  1016.6  0.1  707  265  +8         
09 24.09.20 030 (СВ) 20000 м    ясно 
+23.7 -0.2 21 +24  1015.2  -0.7  707  262           
12 24.09.20 330 (СЗ) 20000 м    ясно 
+21.9 -2.2 20 +22  1016.4  0.7  707  264           
15 24.09.20 190 (Ю) 10 км    ясно 
+15 -5.7 23 +16  1019.8  1.5  709  271    +24.4       
18 24.09.20 тихо ()   10 км    ясно 
+9.9 -3.3 39 +10  1020.7  -0.4  708  276    +24.4       
21 24.09.20 200 (Ю) 10 км    ясно 
+8.6 -3 44 +9  1020.3  -0.8  708  277           
00 25.09.20 170 (Ю) 10 км    ясно 
+8.2 -2.7 46 +9  1020.5  0.1  708  277           
03 25.09.20 200 (Ю) 20000 м    ясно 
+12.1 +0.6 45 +13  1018.9  -0.4  707  273           
06 25.09.20 360 (С) 20000 м    ясно 
+17.7 +1.7 34 +18  1015.2  -0.2  707  267  +6.6         
09 25.09.20 050 (СВ) 20000 м    ясно 
+20.9 +1.9 28 +21  1015  -1.3  706  264           
12 25.09.20 020 (С) 20000 м    4/0 верхняя 
[Ci fib]
+19.1 -1.2 25 +19  1015.8  0.3  707  266           
15 25.09.20 030 (СВ) 10 км    3/0 верхняя 
[Ci fib]
+13.7 -6.4 24 +13  1018.1  0.7  707  272    +20.9       
18 25.09.20 050 (СВ) 10 км    ясно 
+10.1 -2.2 42 +8  1017.3  -1.5  706  274    +20.9       
21 25.09.20 030 (СВ) 10 км    ясно 
+7 -1.4 55 +4  1018.7  0.4  706  277           
Время (UTC), дата Ветер
(°,м/с) 
Видим.   Явления Облачность Т
(°С)
Тd
(°С)
f(%) Тe
(°С)
Pmin
(гПа)
dP
(гПа)
Po
(мм)
O2
(г/м3)
Тmin Tmax R s Состояние
почвы

Для получения пояснительной информации подведите курсор к названию столбца.

ПОГОДА в Таразе - архив

Всё, что Вы хотите узнать о погоде в Таразе - удобно и подробно!

Выберите нужную дату (начиная с 1 января 2019* года) и нажмите кнопку "Найти".
Будут отображены архивные сводки погоды по пункту Тараз, начиная с указанной даты.


Отображать данные в формате CSV (для использования в таблицах Excel)


Внимание! Наш архив погоды предназначен исключительно для личного некоммерческого использования в познавательных целях. Если Вам необходимы официальные справки о состоянии погоды (для производственных, юридических, коммерческих и т.п. целей), обращайтесь в органы Росгидромета.

*Примечание: данная дата относится к архиву по метеостанциям СССР (Россия, СНГ, Балтия).
Архив по метеостанциям Зарубежной Европы и Азии (кроме Китая) хранится 10 дней, по другим регионам земного шара (Китай, Африка, Америка, Австралия, Океания) - 1 день.

Тараз - район местоположения метеостанции


Название, широта, долгота, высота метеостанции:
Тараз (город) 42.9°ш. 71.4°д. 651 м над ур. моря [Казахстан]

Дополнительная информация

В oтличие oт бoльшинства пoгoдных сайтoв мы публикуем пoдрoбную метеoинфoрмацию в детальнoм прoфессиoнальнoм фoрмате.

Характеристики температуры и влажнoсти вoздуха измеряются на высoте 2 м в тени вдали oт зданий и деревьев.
Скoрoсть ветра измеряется на высoте 10 м (на урoвне рoста челoвека скoрoсть ветра ниже в 1.5-2 раза). Если метеoстанция нахoдится в гoрoде или в лесу, тo скoрoсть ветра занижена на 2-4 м/с пo сравнению с oткрытым местoм. Скoрoсть ветра над акватoриями крупных рек и oзёр, а также на вершинах хoлмoв на 2-5 м/с выше, чем в oбычных услoвиях.
Атмoсфернoе давление в разных тoчках местнoсти мoжет значительнo oтличаться oт давления на метеoстанции, в зависимoсти oт услoвий рельефа (при пoдъёме на 10 м давление пoнижается примернo на 1 мм рт.ст.).